Regional Weather Roundup
Issued by NWS

Home | Current Version | Previous Version | Graphics & Text | Print | Product List | Glossary On
Versions: 1 2 3 4 5 6 7 8 9 10 11 12 13 14 15 16 17 18 19 20 21 22 23 24 25 26 27
000
ASUS45 KTFX 242210
RWRMT
MONTANA REGIONAL WEATHER ROUNDUP
NATIONAL WEATHER SERVICE GREAT FALLS MT
400 PM MDT MON APR 24 2017

NOTE: "FAIR" INDICATES FEW OR NO CLOUDS BELOW 12000 FEET WITH NO
SIGNIFICANT WEATHER AND/OR OBSTRUCTIONS TO VISIBILITY.

MTZ001>007-043-242300-
WEST OF THE DIVIDE

CITY           SKY/WX    TMP DP  RH WIND       PRES   REMARKS
KALISPELL      CLOUDY    52  37  56 VRB5      29.62F
MISSOULA       PTSUNNY   54  35  48 W6        29.61F
BUTTE          CLOUDY    45  30  55 MISG      29.60F
MULLAN PASS    CLOUDY    36  31  82 MISG      29.64S
ANACONDA         N/A     46  32  57 S7        29.61F
DEER LODGE       N/A     48  30  49 W9        29.62F
EUREKA           N/A     48  37  66 NW8       29.65S
HAMILTON         N/A     54  34  47 S7        29.59S
LIBBY            N/A     54  36  50 NW5       29.61S
PLAINS           N/A     55  35  46 S1        29.66F
THOMPSON FALLS   N/A     54  39  56 W8        29.70S
$$

MTZ008-052>055-242300-
SOUTHWEST MONTANA

CITY           SKY/WX    TMP DP  RH WIND       PRES   REMARKS
BOZEMAN        CLOUDY    52  32  46 W3        29.57F
DILLON         CLOUDY    49  30  48 N6        29.56F
W YELLOWSTONE  CLOUDY    34  32  93 SW5       29.62F
ENNIS          SUNNY     48  30  49 S7        29.63F
THREE FORKS      N/A     55  55 100 SE1       29.61F
TWIN BRIDGES     N/A     51  25  36 S8        29.62F
$$

MTZ009-010-012-014-046-048-049-054-242300-
EAST SLOPES AND CENTRAL MONTANA

CITY           SKY/WX    TMP DP  RH WIND       PRES   REMARKS
CUT BANK       CLOUDY    48  34  58 NE9       29.60F
GREAT FALLS    CLOUDY    54  28  36 VRB5      29.57F
MALMSTROM AFB  CLOUDY    54  34  46 NE13      29.57S
HELENA         CLOUDY    55  32  41 SE10      29.56S
AUGUSTA        PTSUNNY   51  26  39 N7        29.58S
BOWMANS CRNR     N/A     51  25  36 NE3       29.56F
CHOTEAU          N/A     54  25  32 NW7G14    29.59F
FAIRFIELD        N/A     57  26  30 N12G17    29.56F
POWER            N/A     55  35  46 NE12G18   29.57F
RAYNESFORD     PTSUNNY   54  36  49 E9G21     29.57F
ULM              N/A     56  29  36 NW13G20   29.57S
$$

MTZ011-013-016-021-045-047-050-051-242300-
NORTH CENTRAL MONTANA

CITY           SKY/WX    TMP DP  RH WIND       PRES   REMARKS
HAVRE          MOSUNNY   55  40  56 E9        29.61F
LEWISTOWN      CLOUDY    48  35  60 NW14      29.60R
N BAR RANCH      N/A     46  41  81 E9        29.62F
CHINOOK          N/A     54  37  54 E5        29.61F
DENTON         RAIN      46  41  82 MISG      29.56S
FORT BENTON      N/A     57  32  38 MISG      29.58F
GEYSER         PTSUNNY   51  38  62 NE14      29.58F
GRASS RANGE    PTSUNNY   47  41  82 E13       29.57S
JUDITH GAP     PTSUNNY   44  39  81 NW17      29.59S
STANFORD       PTSUNNY   47  38  71 S5        29.60F
WINIFRED       LGT RAIN  50  40  69 E18       29.58F
$$

MTZ017>020-022>027-061-062-242300-
NORTHEAST MONTANA

CITY           SKY/WX    TMP DP  RH WIND       PRES   REMARKS
GLASGOW        CLOUDY    47  33  58 VRB7      29.68R
JORDAN           N/A     50  38  63 E7        29.63F
SIDNEY         CLOUDY    38  31  76 NE13      29.72S WCI  30
WOLF POINT     CLOUDY    40  30  67 E12       29.73R
MALTA          CLOUDY    50  37  62 E9        29.65S
PLENTYWOOD       N/A     30  27  86 NE10      29.76S WCI  21
POPLAR           N/A     36  28  75 NE10      29.73S WCI  28
SCOBEY           N/A     32  21  64 NE8       29.74S WCI  25
$$

MTZ028>42-056>058-242300-
SOUTHCENTRAL AND SOUTHEAST MONTANA

CITY           SKY/WX    TMP DP  RH WIND       PRES   REMARKS
BAKER          CLOUDY    46  36  68 NW10      29.64F
BILLINGS       CLOUDY    53  41  63 VRB3      29.57F
LIVINGSTON     CLOUDY    55  32  41 MISG      29.55F
MILES CITY     MOSUNNY   53  38  56 NE12      29.61F
BIG TIMBER     MOSUNNY   55  30  38 W10       29.57F
EKALAKA          N/A     47  38  71 N8        29.63
LAUREL           N/A     53  39  59 CALM      29.60R
ROUNDUP          N/A     54  41  61 NE13      29.54F
$$

REGIONAL REPORTS...DAKOTAS

CITY           SKY/WX    TMP DP  RH WIND       PRES   REMARKS
WILLISTON      CLOUDY    37  28  70 NE13      29.74R WCI  29
MINOT          CLOUDY    34  28  79 N14       29.72R WCI  25
DICKINSON      CLOUDY    38  32  79 N9        29.65R WCI  31
BEACH          CLOUDY    43  39  87 N10       29.68F
TIOGA          CLOUDY    30  30 100 NE14      29.74S WCI  20
WATFORD CITY   CLOUDY    36  30  80 N7        29.71S WCI  30
BISMARCK       CLOUDY    40  33  76 N14       29.66S
GRAND FORKS    DRIZZLE   36  35  96 N18       29.62R WCI  26
FARGO          LGT RAIN  47  46  97 N12       29.52F
BUFFALO SD       N/A     53  41  63 N17       29.53F
RAPID CITY     CLOUDY    59  40  49 N17       29.58F
$$

REGIONAL REPORTS...WYOMING/IDAHO/WASHINGTON

CITY           SKY/WX    TMP DP  RH WIND       PRES   REMARKS
GILLETTE       MOSUNNY   60  34  37 CALM      29.56F
SHERIDAN       CLOUDY    57  38  48 NE3       29.55F
BUFFALO WY     CLOUDY    57  35  43 CALM      29.57F
CODY           LGT RAIN  46  38  73 E8        29.57F
YELLOWSTONE LA   N/A     34  31  88 CALM      29.63F
IDAHO FALLS    LGT RAIN  43  41  93 S13       29.65F
SALMON         CLOUDY    45  36  70 W7        29.61R
BOISE          PTSUNNY   54  40  59 NW8       29.70F
SPOKANE        CLOUDY    50  37  61 W8        29.68S
$$

REGIONAL REPORTS...ALBERTA

CITY           SKY/WX    TMP DP  RH WIND       PRES   REMARKS
EDMONTON       MIX PCPN  34  32  93 NE5       29.77R
CALGARY        CLOUDY    39  36  87 NE9       29.68S
LETHBRIDGE     PTSUNNY   46  37  71 NE14      29.65S
MEDICINE HAT   CLOUDY    46  41  81 NE9       29.65S
WATERTON GATE    N/A     45  36  70 NE8         N/A
MILK RIVER       N/A     48  36  61 N10         N/A
$$

REGIONAL REPORTS...SASKATCHEWAN

CITY           SKY/WX    TMP DP  RH WIND       PRES   REMARKS
SWIFT CURRENT  CLOUDY    34  28  80 E15G22    29.72S WCI  24
REGINA         CLOUDY    30  23  74 E13G18    29.83S WCI  20
SASKATOON      CLOUDY    32  27  80 E17       29.89R WCI  21
VAL MARIE        N/A     43  34  70 E9          N/A
ASSINIBOIA       N/A     37  34  87 SE7         N/A
$$




USA.gov is the U.S. government's official web portal to all federal, state and local government web resources and services.